Radiation Dose at Monitoring Post of Fukushima Daini Nuclear Power Station
Date,Time,MP-1(microSv/h),MP-2(microSv/h),MP-3(microSv/h),MP-4(microSv/h),MP-5(microSv/h),MP-6(microSv/h),MP-7(microSv/h),Wind Direction,Wind Velocity(m/s),Rain
2019/07/28,00:00,0.186,0.166,0.278,0.263,0.264,0.141,0.087,south,7.3,No
2019/07/28,00:10,0.185,0.166,0.278,0.260,0.269,0.141,0.087,south,7.4,No
2019/07/28,00:20,0.182,0.167,0.281,0.264,0.266,0.139,0.087,south,9.0,No
2019/07/28,00:30,0.183,0.166,0.281,0.264,0.264,0.139,0.086,south,8.8,No
2019/07/28,00:40,0.185,0.166,0.277,0.262,0.265,0.141,0.087,south,9.0,No
2019/07/28,00:50,0.185,0.166,0.277,0.261,0.268,0.140,0.087,south,8.6,No
2019/07/28,01:00,0.182,0.166,0.280,0.263,0.267,0.140,0.087,south,8.1,No
2019/07/28,01:10,0.183,0.166,0.282,0.265,0.265,0.139,0.087,south,7.7,No
2019/07/28,01:20,0.185,0.165,0.279,0.263,0.265,0.141,0.087,south,7.5,No
2019/07/28,01:30,0.185,0.166,0.277,0.262,0.268,0.141,0.088,south,6.5,No
2019/07/28,01:40,0.183,0.168,0.280,0.264,0.266,0.140,0.087,south,6.5,No
2019/07/28,01:50,0.183,0.166,0.281,0.267,0.263,0.140,0.088,south,6.7,No
2019/07/28,02:00,0.185,0.166,0.279,0.264,0.266,0.141,0.087,south,7.3,No
2019/07/28,02:10,0.184,0.167,0.277,0.261,0.267,0.141,0.087,south,7.6,Yes
2019/07/28,02:20,0.182,0.168,0.281,0.263,0.265,0.141,0.087,south,7.1,Yes
2019/07/28,02:30,0.184,0.167,0.280,0.266,0.264,0.140,0.087,south,7.5,Yes
2019/07/28,02:40,0.185,0.165,0.279,0.264,0.267,0.140,0.088,south,7.0,No
2019/07/28,02:50,0.183,0.166,0.276,0.262,0.268,0.141,0.087,south-southeast,6.7,Yes
2019/07/28,03:00,0.182,0.167,0.280,0.265,0.266,0.140,0.087,south,7.1,Yes
2019/07/28,03:10,0.184,0.166,0.281,0.266,0.266,0.141,0.088,south,7.0,Yes
2019/07/28,03:20,0.185,0.167,0.279,0.263,0.268,0.141,0.088,south,4.3,Yes
2019/07/28,03:30,0.184,0.169,0.281,0.264,0.267,0.142,0.088,south-southwest,3.1,Yes
2019/07/28,03:40,0.184,0.167,0.281,0.266,0.264,0.141,0.089,south-southwest,3.2,Yes
2019/07/28,03:50,0.187,0.168,0.280,0.266,0.267,0.142,0.089,south-southwest,3.2,Yes
2019/07/28,04:00,0.186,0.170,0.282,0.263,0.269,0.143,0.091,south,2.9,Yes
2019/07/28,04:10,0.185,0.168,0.284,0.267,0.266,0.143,0.091,south-southwest,2.8,Yes
2019/07/28,04:20,0.188,0.168,0.282,0.267,0.265,0.144,0.090,south-southwest,3.2,Yes
2019/07/28,04:30,0.188,0.170,0.279,0.263,0.269,0.144,0.091,southwest,3.6,Yes
2019/07/28,04:40,0.186,0.170,0.280,0.263,0.266,0.144,0.093,northeast,4.3,Yes
2019/07/28,04:50,0.187,0.168,0.280,0.264,0.266,0.143,0.092,west-northwest,4.1,Yes
2019/07/28,05:00,0.187,0.171,0.277,0.261,0.268,0.144,0.093,northwest,3.4,Yes
2019/07/28,05:10,0.186,0.170,0.280,0.261,0.267,0.146,0.094,east-southeast,6.4,Yes
2019/07/28,05:20,0.188,0.170,0.278,0.263,0.265,0.144,0.094,-,CALM,Yes
2019/07/28,05:30,0.187,0.171,0.276,0.261,0.268,0.147,0.096,-,CALM,Yes
2019/07/28,05:40,0.186,0.171,0.278,0.260,0.269,0.147,0.095,-,CALM,Yes
2019/07/28,05:50,0.188,0.171,0.277,0.262,0.266,0.145,0.096,north,3.2,Yes
2019/07/28,06:00,0.189,0.171,0.274,0.261,0.268,0.146,0.096,-,CALM,Yes
2019/07/28,06:10,0.186,0.171,0.276,0.258,0.269,0.145,0.095,west-southwest,1.4,Yes
2019/07/28,06:20,0.186,0.170,0.277,0.262,0.268,0.143,0.095,-,CALM,Yes
2019/07/28,06:30,0.186,0.170,0.273,0.259,0.265,0.143,0.094,-,CALM,Yes
2019/07/28,06:40,0.184,0.168,0.273,0.256,0.269,0.143,0.092,north-northwest,2.9,Yes
2019/07/28,06:50,0.184,0.167,0.274,0.257,0.266,0.141,0.092,northwest,3.0,Yes
2019/07/28,07:00,0.185,0.168,0.272,0.259,0.262,0.141,0.092,north-northwest,5.0,Yes
2019/07/28,07:10,0.183,0.166,0.271,0.257,0.265,0.140,0.091,north-northwest,7.9,Yes
2019/07/28,07:20,0.181,0.165,0.273,0.254,0.265,0.139,0.091,north-northwest,8.1,Yes
2019/07/28,07:30,0.182,0.166,0.270,0.257,0.262,0.138,0.090,north-northwest,7.9,Yes
2019/07/28,07:40,0.181,0.166,0.268,0.255,0.261,0.139,0.089,north-northwest,8.6,Yes
2019/07/28,07:50,0.180,0.164,0.270,0.254,0.266,0.140,0.089,north-northwest,9.5,No
2019/07/28,08:00,0.180,0.164,0.270,0.254,0.263,0.138,0.088,northwest,9.8,No
2019/07/28,08:10,0.181,0.165,0.267,0.256,0.261,0.137,0.089,northwest,7.3,No
2019/07/28,08:20,0.180,0.164,0.269,0.254,0.259,0.136,0.086,northwest,7.3,No
2019/07/28,08:30,0.179,0.162,0.271,0.252,0.262,0.138,0.087,northwest,8.2,No
2019/07/28,08:40,0.177,0.162,0.270,0.253,0.263,0.135,0.086,north-northwest,7.7,No
2019/07/28,08:50,0.179,0.163,0.267,0.257,0.261,0.136,0.087,northwest,6.2,No
2019/07/28,09:00,0.179,0.163,0.267,0.254,0.258,0.135,0.087,northwest,5.2,Yes
2019/07/28,09:10,0.180,0.163,0.272,0.253,0.258,0.136,0.087,north-northwest,4.3,Yes
2019/07/28,09:20,0.178,0.162,0.270,0.252,0.261,0.137,0.086,north-northwest,4.0,Yes
2019/07/28,09:30,0.178,0.162,0.268,0.255,0.263,0.136,0.086,north,3.6,No
2019/07/28,09:40,0.181,0.163,0.266,0.256,0.261,0.136,0.087,north,3.1,No
2019/07/28,09:50,0.179,0.163,0.270,0.254,0.260,0.135,0.087,north,3.2,No
2019/07/28,10:00,0.179,0.162,0.272,0.252,0.259,0.136,0.085,north,3.4,No
2019/07/28,10:10,0.177,0.162,0.269,0.252,0.259,0.136,0.085,north-northwest,2.3,No
2019/07/28,10:20,0.178,0.161,0.268,0.253,0.258,0.137,0.085,northwest,2.1,No
2019/07/28,10:30,0.181,0.161,0.267,0.255,0.258,0.136,0.085,northwest,1.5,No
2019/07/28,10:40,0.179,0.161,0.266,0.255,0.259,0.137,0.085,-,CALM,No
2019/07/28,10:50,0.178,0.161,0.268,0.254,0.261,0.137,0.085,east-northeast,0.9,No
2019/07/28,11:00,0.177,0.162,0.267,0.254,0.261,0.136,0.085,south,1.5,No
2019/07/28,11:10,0.178,0.162,0.267,0.255,0.261,0.136,0.086,southeast,1.9,No
2019/07/28,11:20,0.179,0.161,0.267,0.254,0.263,0.135,0.085,south,2.4,No
2019/07/28,11:30,0.177,0.161,0.267,0.253,0.262,0.136,0.086,south,3.7,No
2019/07/28,11:40,0.178,0.162,0.270,0.253,0.261,0.136,0.086,south-southeast,4.8,No
2019/07/28,11:50,0.179,0.162,0.269,0.256,0.260,0.136,0.085,south,5.3,No
2019/07/28,12:00,0.178,0.162,0.269,0.256,0.262,0.136,0.086,south,5.1,No
2019/07/28,12:10,0.179,0.163,0.269,0.255,0.262,0.136,0.085,south,6.0,No
2019/07/28,12:20,0.179,0.163,0.270,0.255,0.262,0.137,0.085,south-southeast,6.4,No
2019/07/28,12:30,0.180,0.163,0.270,0.255,0.261,0.136,0.085,south,5.5,No
2019/07/28,12:40,0.180,0.163,0.271,0.255,0.262,0.136,0.085,south-southeast,6.3,No
2019/07/28,12:50,0.180,0.163,0.271,0.254,0.261,0.136,0.085,south,7.0,No
2019/07/28,13:00,0.179,0.164,0.271,0.257,0.262,0.137,0.085,south,6.5,No
2019/07/28,13:10,0.180,0.163,0.270,0.256,0.263,0.136,0.086,south,6.3,No
2019/07/28,13:20,0.181,0.163,0.270,0.257,0.262,0.137,0.085,south,6.2,No
2019/07/28,13:30,0.180,0.163,0.270,0.257,0.262,0.137,0.085,south-southeast,6.2,No
2019/07/28,13:40,0.180,0.163,0.272,0.257,0.261,0.137,0.085,south-southwest,3.0,No
2019/07/28,13:50,0.178,0.163,0.271,0.255,0.262,0.137,0.086,west-southwest,3.5,No
2019/07/28,14:00,0.180,0.163,0.270,0.255,0.262,0.138,0.086,west-northwest,4.6,No
2019/07/28,14:10,0.179,0.163,0.270,0.255,0.263,0.137,0.085,northwest,3.8,No
2019/07/28,14:20,0.179,0.163,0.269,0.255,0.260,0.138,0.085,northwest,3.6,No
2019/07/28,14:30,0.179,0.163,0.269,0.255,0.262,0.137,0.085,northwest,2.3,No
2019/07/28,14:40,0.178,0.161,0.270,0.255,0.262,0.137,0.085,northwest,0.7,No
2019/07/28,14:50,0.178,0.162,0.270,0.254,0.262,0.136,0.085,north-northwest,1.0,No
2019/07/28,15:00,0.178,0.162,0.270,0.255,0.263,0.137,0.085,-,CALM,No
2019/07/28,15:10,0.179,0.162,0.268,0.256,0.261,0.136,0.086,east-northeast,1.9,No
2019/07/28,15:20,0.179,0.162,0.270,0.255,0.263,0.137,0.086,north-northeast,1.7,No
2019/07/28,15:30,0.179,0.162,0.271,0.254,0.264,0.137,0.085,northeast,2.8,No
2019/07/28,15:40,0.179,0.161,0.269,0.256,0.263,0.138,0.086,east-northeast,2.2,No
2019/07/28,15:50,0.179,0.162,0.272,0.255,0.262,0.138,0.085,east-northeast,2.1,No
2019/07/28,16:00,0.180,0.162,0.271,0.255,0.263,0.138,0.085,east,2.5,No
2019/07/28,16:10,0.182,0.162,0.270,0.255,0.263,0.138,0.085,east-southeast,3.4,No
2019/07/28,16:20,0.180,0.163,0.271,0.254,0.263,0.139,0.085,east-southeast,3.2,No
2019/07/28,16:30,0.180,0.162,0.271,0.255,0.263,0.138,0.085,east-southeast,3.3,No
2019/07/28,16:40,0.181,0.162,0.270,0.255,0.264,0.139,0.086,southeast,3.1,No
2019/07/28,16:50,0.182,0.162,0.270,0.255,0.263,0.138,0.085,south-southeast,2.6,No
2019/07/28,17:00,0.180,0.162,0.270,0.254,0.265,0.137,0.085,south-southeast,1.5,No
2019/07/28,17:10,0.180,0.163,0.271,0.255,0.263,0.138,0.086,south-southeast,1.9,No
2019/07/28,17:20,0.179,0.162,0.269,0.255,0.262,0.137,0.086,south-southeast,1.4,No
2019/07/28,17:30,0.179,0.163,0.269,0.255,0.262,0.137,0.085,south,1.1,No
2019/07/28,17:40,0.179,0.165,0.272,0.255,0.262,0.137,0.085,southwest,1.4,No
2019/07/28,17:50,0.178,0.165,0.275,0.259,0.260,0.138,0.086,south-southwest,1.1,No
2019/07/28,18:00,0.180,0.164,0.273,0.260,0.260,0.138,0.086,southwest,0.7,No
2019/07/28,18:10,0.182,0.163,0.272,0.257,0.259,0.137,0.085,southwest,1.2,No
2019/07/28,18:20,0.181,0.163,0.271,0.256,0.261,0.137,0.086,southwest,0.6,No
2019/07/28,18:30,0.180,0.165,0.270,0.255,0.261,0.138,0.086,south,1.1,No
2019/07/28,18:40,0.179,0.165,0.271,0.255,0.261,0.138,0.086,southwest,1.5,No
2019/07/28,18:50,0.179,0.163,0.274,0.259,0.262,0.137,0.086,west-southwest,0.8,No
2019/07/28,19:00,0.181,0.163,0.272,0.259,0.261,0.138,0.086,west-southwest,1.5,No
2019/07/28,19:10,0.183,0.163,0.272,0.258,0.261,0.138,0.087,west,2.1,No
2019/07/28,19:20,0.181,0.164,0.271,0.255,0.261,0.139,0.086,west,4.0,No
2019/07/28,19:30,0.180,0.164,0.272,0.255,0.260,0.139,0.086,west,2.4,No
2019/07/28,19:40,0.179,0.162,0.275,0.258,0.265,0.139,0.086,west-northwest,4.1,No
2019/07/28,19:50,0.181,0.163,0.272,0.258,0.265,0.139,0.087,west-northwest,3.6,No
2019/07/28,20:00,0.182,0.164,0.271,0.257,0.263,0.138,0.086,west-northwest,3.3,No
2019/07/28,20:10,0.181,0.163,0.270,0.256,0.262,0.138,0.086,west,3.1,No
2019/07/28,20:20,0.179,0.162,0.273,0.256,0.261,0.138,0.087,west,3.8,No
2019/07/28,20:30,0.181,0.165,0.274,0.258,0.262,0.139,0.086,west-northwest,3.9,No
2019/07/28,20:40,0.182,0.164,0.272,0.258,0.264,0.138,0.086,west,4.2,No
2019/07/28,20:50,0.182,0.163,0.271,0.257,0.264,0.139,0.086,west,3.8,No
2019/07/28,21:00,0.180,0.164,0.272,0.255,0.262,0.139,0.086,west-northwest,2.4,No
2019/07/28,21:10,0.182,0.165,0.275,0.258,0.260,0.139,0.087,north-northwest,1.8,No
2019/07/28,21:20,0.183,0.165,0.273,0.260,0.263,0.138,0.086,northwest,1.0,No
2019/07/28,21:30,0.180,0.163,0.269,0.258,0.266,0.137,0.086,west-northwest,0.9,No
2019/07/28,21:40,0.180,0.165,0.273,0.255,0.263,0.139,0.086,northwest,0.9,No
2019/07/28,21:50,0.182,0.165,0.274,0.257,0.261,0.138,0.086,northwest,1.1,No
2019/07/28,22:00,0.182,0.163,0.273,0.259,0.260,0.137,0.085,northwest,1.1,No
2019/07/28,22:10,0.180,0.164,0.270,0.258,0.265,0.138,0.087,west-southwest,2.1,No
2019/07/28,22:20,0.179,0.165,0.273,0.256,0.264,0.138,0.086,west,2.0,No
2019/07/28,22:30,0.182,0.164,0.274,0.259,0.261,0.139,0.086,west,3.8,No
2019/07/28,22:40,0.181,0.163,0.271,0.260,0.261,0.138,0.086,west,2.6,No
2019/07/28,22:50,0.180,0.165,0.271,0.257,0.265,0.139,0.086,west,3.3,No
2019/07/28,23:00,0.182,0.164,0.275,0.255,0.264,0.137,0.085,west,2.3,No
2019/07/28,23:10,0.182,0.163,0.272,0.257,0.262,0.137,0.086,west,2.0,No
2019/07/28,23:20,0.180,0.165,0.270,0.259,0.260,0.140,0.086,west-northwest,2.3,No
2019/07/28,23:30,0.180,0.164,0.271,0.258,0.263,0.138,0.086,west-northwest,4.0,No
2019/07/28,23:40,0.181,0.163,0.275,0.256,0.265,0.137,0.086,west-northwest,2.8,No
2019/07/28,23:50,0.182,0.165,0.273,0.258,0.261,0.139,0.086,west,3.0,No
